Kenai, AK

2:22 AM AKDT on March 25, 2017 (GMT -0800)
Kenai Municipal

Weather History for PAEN - December, 2013

Change the Weather History Date:

Sunday, December 8, 2013

  Actual Average Record
Temperature  
Mean Temperature 28 °F -  
Max Temperature 32 °F 22 °F 46 °F (2005)
Min Temperature 23 °F 7 °F -27 °F (1975)
Degree Days  
Heating Degree Days 38    
Moisture  
Dew Point 30 °F    
Average Humidity 100    
Maximum Humidity 100    
Minimum Humidity 96    
Precipitation  
Precipitation 0.03 in - - ()
Sea Level Pressure  
Sea Level Pressure 30.45 in    
Wind  
Wind Speed 1 mph (East)    
Max Wind Speed 7 mph    
Max Gust Speed -    
Visibility 2 miles    
Events Fog    
Averages and records for this station are not official NWS values.
T = Trace of Precipitation, MM = Missing Value Source: NWS Daily Summary

Daily Weather History Graph

Daily Weather History Graph

Search for Another Location

Airport or City:

Trip Planner

Search our weather history database for the weather conditions in past years. The results will help you decide how hot, cold, wet, or windy it might be!

Date:

Astronomy

Dec. 08, 2013 Rise Set
Actual Time 9:58 AM AKST 3:55 PM AKST
Civil Twilight 9:00 AM AKST 4:53 PM AKST
Nautical Twilight 8:03 AM AKST 5:50 PM AKST
Astronomical Twilight 7:11 AM AKST 6:42 PM AKST
Moon 12:58 PM AKST (12/8) No Moon Set
Length of Visible Light 7h 52m
Length of Day
5h 56m
Waxing Crescent, 41% of the Moon is Illuminated
Dec 8
Waxing Crescent
Dec 9
First Quarter
Dec 17
Full
Dec 25
Last Quarter
Jan 1
New

Hourly Weather History & Observations

Time (AKST) Temp. Windchill Dew Point Humidity Pressure Visibility Wind Dir Wind Speed Gust Speed Precip Events Conditions
12:26 AM 32.0 °F - 32.0 °F 100% 30.48 in 1.2 mi Calm Calm - N/A   Overcast
12:48 AM 32.0 °F - 32.0 °F 100% 30.48 in 0.8 mi Calm Calm - N/A   Mist
12:53 AM 32.0 °F - 32.0 °F 100% 30.48 in 0.8 mi Calm Calm - N/A   Mist
1:17 AM 32.0 °F - 32.0 °F 100% 30.47 in 0.5 mi Calm Calm - N/A Fog Fog
1:30 AM 32.0 °F - 32.0 °F 100% 30.47 in 0.5 mi Calm Calm - N/A Fog Fog
1:51 AM 32.0 °F - 32.0 °F 100% 30.47 in 0.8 mi Calm Calm - N/A   Mist
1:53 AM 32.0 °F - 32.0 °F 100% 30.48 in 0.8 mi Calm Calm - N/A   Mist
2:14 AM 32.0 °F - 32.0 °F 100% 30.47 in 1.0 mi Calm Calm - N/A   Mist
2:33 AM 32.0 °F - 32.0 °F 100% 30.47 in 0.8 mi Calm Calm - N/A   Mist
2:46 AM 32.0 °F - 32.0 °F 100% 30.46 in 1.0 mi Calm Calm - N/A   Mist
2:53 AM 30.9 °F - 30.9 °F 100% 30.47 in 0.8 mi Calm Calm - N/A   Mist
3:53 AM 30.9 °F - 30.9 °F 100% 30.47 in 1.0 mi Calm Calm - N/A   Mist
4:28 AM 30.2 °F - 30.2 °F 100% 30.47 in 0.8 mi Calm Calm - N/A   Mist
4:36 AM 30.2 °F - 30.2 °F 100% 30.47 in 0.8 mi Calm Calm - N/A   Mist
4:53 AM 30.9 °F - 30.9 °F 100% 30.48 in 0.8 mi Calm Calm - N/A   Mist
5:07 AM 30.2 °F - 30.2 °F 100% 30.47 in 1.0 mi Calm Calm - 0.01 in   Overcast
5:26 AM 30.2 °F 26.7 °F 30.2 °F 100% 30.47 in 0.8 mi SSE 3.5 mph - 0.01 in   Overcast
5:44 AM 30.2 °F - 30.2 °F 100% 30.47 in 0.5 mi Calm Calm - 0.01 in Fog Light Freezing Fog
5:53 AM 30.9 °F - 30.9 °F 100% 30.48 in 0.5 mi Calm Calm - 0.01 in Fog Light Freezing Fog
6:24 AM 30.2 °F 26.7 °F 30.2 °F 100% 30.48 in 1.0 mi SE 3.5 mph - N/A   Mist
6:53 AM 30.9 °F - 30.9 °F 100% 30.49 in 2.0 mi Calm Calm - N/A   Overcast
7:17 AM 30.2 °F - 30.2 °F 100% 30.48 in 1.5 mi Calm Calm - N/A   Overcast
7:53 AM 30.9 °F - 30.9 °F 100% 30.49 in 1.2 mi Calm Calm - N/A   Overcast
8:53 AM 30.9 °F - 30.9 °F 100% 30.49 in 1.0 mi Calm Calm - 0.01 in   Mist
8:59 AM 30.2 °F - 30.2 °F 100% 30.48 in 0.8 mi Calm Calm - N/A   Mist
9:53 AM 30.0 °F - 30.0 °F 100% 30.48 in 0.5 mi Calm Calm - N/A Fog Light Freezing Fog
10:31 AM 30.2 °F - 30.2 °F 100% 30.47 in 1.0 mi Calm Calm - N/A   Overcast
10:53 AM 30.0 °F - 30.0 °F 100% 30.47 in 2.0 mi Calm Calm - N/A   Overcast
11:01 AM 30.2 °F 26.7 °F 30.2 °F 100% 30.46 in 1.2 mi NNE 3.5 mph - N/A   Overcast
11:12 AM 30.2 °F 26.7 °F 30.2 °F 100% 30.46 in 0.5 mi NNE 3.5 mph - N/A Fog Light Freezing Fog
11:53 AM 30.9 °F 26.2 °F 30.9 °F 100% 30.46 in 0.5 mi NNE 4.6 mph - N/A Fog Light Freezing Fog
12:12 PM 30.2 °F 24.3 °F 30.2 °F 100% 30.45 in 2.5 mi NNE 5.8 mph - N/A   Overcast
12:53 PM 30.9 °F 26.2 °F 30.9 °F 100% 30.45 in 2.0 mi NE 4.6 mph - N/A   Overcast
1:53 PM 30.9 °F 26.2 °F 30.9 °F 100% 30.45 in 2.0 mi NNE 4.6 mph - N/A   Overcast
2:00 PM 30.2 °F 26.7 °F 30.2 °F 100% 30.44 in 1.2 mi North 3.5 mph - N/A   Overcast
2:19 PM 30.2 °F - 30.2 °F 100% 30.45 in 2.0 mi Calm Calm - N/A   Overcast
2:53 PM 30.9 °F - 30.9 °F 100% 30.45 in 2.0 mi Calm Calm - N/A   Overcast
2:55 PM 30.2 °F - 30.2 °F 100% 30.45 in 1.0 mi Calm Calm - N/A   Overcast
3:53 PM 30.0 °F 24.1 °F 30.0 °F 100% 30.44 in 1.0 mi South 5.8 mph - N/A   Overcast
4:00 PM 30.2 °F 26.7 °F 30.2 °F 100% 30.43 in 0.8 mi South 3.5 mph - N/A   Overcast
4:16 PM 30.2 °F 23.4 °F 30.2 °F 100% 30.43 in 1.2 mi SSW 6.9 mph - 0.01 in   Overcast
4:53 PM 30.0 °F 23.2 °F 30.0 °F 100% 30.44 in 1.0 mi South 6.9 mph - 0.01 in   Overcast
5:53 PM 28.9 °F 21.9 °F 28.9 °F 100% 30.44 in 1.0 mi South 6.9 mph - N/A   Overcast
5:55 PM 28.4 °F 21.2 °F 28.4 °F 100% 30.43 in 2.0 mi South 6.9 mph - N/A   Overcast
6:30 PM 28.4 °F 23.3 °F 28.4 °F 100% 30.43 in 2.0 mi SE 4.6 mph - N/A   Overcast
6:53 PM 28.9 °F 25.2 °F 28.9 °F 100% 30.43 in 2.0 mi SE 3.5 mph - N/A   Overcast
6:55 PM 28.4 °F - 28.4 °F 100% 30.42 in 6.0 mi Calm Calm - N/A   Overcast
7:16 PM 28.4 °F 22.2 °F 28.4 °F 100% 30.42 in 10.0 mi ENE 5.8 mph - N/A   Overcast
7:53 PM 28.9 °F 22.8 °F 28.9 °F 100% 30.42 in 10.0 mi East 5.8 mph - N/A   Overcast
8:46 PM 26.6 °F 22.6 °F 26.6 °F 100% 30.40 in 10.0 mi East 3.5 mph - N/A   Clear
8:53 PM 27.0 °F 23.0 °F 26.1 °F 96% 30.40 in 10.0 mi ENE 3.5 mph - N/A   Clear
9:46 PM 23.0 °F - 23.0 °F 100% 30.40 in 1.5 mi Calm Calm - N/A   Mostly Cloudy
9:53 PM 25.0 °F - 25.0 °F 100% 30.41 in 1.2 mi Calm Calm - N/A   Mostly Cloudy
9:56 PM 24.8 °F - 24.8 °F 100% 30.40 in 2.0 mi Calm Calm - N/A   Mostly Cloudy
10:04 PM 26.6 °F 22.6 °F 26.6 °F 100% 30.40 in 7.0 mi ENE 3.5 mph - N/A   Overcast
10:12 PM 26.6 °F 20.0 °F 26.6 °F 100% 30.39 in 1.8 mi ENE 5.8 mph - N/A   Overcast
10:42 PM 26.6 °F 19.1 °F 26.6 °F 100% 30.39 in 2.0 mi ENE 6.9 mph - N/A   Overcast
10:46 PM 26.6 °F 19.1 °F 26.6 °F 100% 30.39 in 3.0 mi ENE 6.9 mph - N/A   Overcast
10:53 PM 26.1 °F 19.4 °F 26.1 °F 100% 30.40 in 7.0 mi NNE 5.8 mph - N/A   Overcast
11:53 PM 27.0 °F 20.5 °F 27.0 °F 100% 30.39 in 10.0 mi NNE 5.8 mph - N/A   Overcast